Location: Cutler
(25.6150°N, 80.3110°W)
Time: 00:11:07
(UTC-04:00)

Vanguard 3 - Visible Passes

Search period start: 18 June 2018 00:00
Search period end: 28 June 2018 00:00
Orbit: 508 x 3264 km, 33.3° (Epoch: 17 June)

Date Brightness Start Highest point End Pass type
(mag) Time Alt. Az. Time Alt. Az. Time Alt. Az.
18 Jun 9.2 02:57:30 22° E 02:57:30 22° E 03:00:38 10° ENE visible
18 Jun 8.2 05:02:05 21° W 05:06:24 66° NNW 05:17:02 10° ENE visible
19 Jun 7.2 03:52:20 87° E 03:52:20 87° E 04:00:25 10° ENE visible
19 Jun 9.0 05:58:43 10° WNW 06:05:30 54° N 06:17:45 10° ENE visible
20 Jun 9.4 02:42:34 18° E 02:42:34 18° E 02:44:31 10° ENE visible
20 Jun 8.2 04:47:09 23° W 04:50:45 57° N 05:00:19 10° ENE visible
21 Jun 7.5 03:37:24 65° NE 03:37:24 65° NE 03:43:58 10° ENE visible
21 Jun 8.9 05:43:30 10° WNW 05:49:46 51° N 06:00:58 10° ENE visible
22 Jun 9.6 02:27:39 13° ENE 02:27:39 13° ENE 02:28:28 10° ENE visible
22 Jun 8.2 04:32:14 26° WNW 04:35:11 50° N 04:43:41 10° ENE visible
23 Jun 8.0 03:22:29 46° NE 03:22:29 46° NE 03:27:37 10° ENE visible
23 Jun 8.9 05:28:18 10° WNW 05:34:07 48° N 05:44:16 10° ENE visible
24 Jun 8.3 04:17:20 28° NW 04:19:40 44° N 04:27:13 10° ENE visible
25 Jun 8.5 03:07:38 32° NE 03:07:38 32° NE 03:11:23 10° ENE visible
25 Jun 8.7 05:13:05 10° WNW 05:18:28 46° N 05:27:42 10° E visible
26 Jun 8.2 04:02:31 30° NW 04:04:11 39° N 04:10:51 10° ENE visible
27 Jun 9.0 02:52:51 22° NE 02:52:51 22° NE 02:55:15 10° ENE visible
27 Jun 8.6 04:57:52 10° WNW 05:02:51 45° NNE 05:11:14 10° E visible
